Albany, NY

1:37 AM EST on November 20, 2019 (GMT -0500)
Albany International

Weather History for KALB - July, 2019

Change the Weather History Date:

Wednesday, July 10, 2019

  Actual Average Record
Temperature  
Mean Temperature 75 °F 72 °F  
Max Temperature 89 °F 82 °F 100 °F (1936)
Min Temperature 60 °F 61 °F 47 °F (1954)
Degree Days  
Heating Degree Days 0 0  
Month to date heating degree days 0 0  
Since 1 June heating degree days 27 52  
Since 1 July heating degree days 0 0  
Cooling Degree Days 10 7  
Month to date cooling degree days 110 67  
Year to date cooling degree days 260 215  
Since 1 June cooling degree days 238 185  
Growing Degree Days 24 (Base 50)    
Moisture  
Dew Point 60 °F    
Average Humidity 57    
Maximum Humidity 78    
Minimum Humidity 35    
Precipitation  
Precipitation 0.00 in 0.14 in 1.64 in (1989)
Month to date precipitation 0.50 1.31  
Year to date precipitation 21.37 19.88  
Sea Level Pressure  
Sea Level Pressure 30.02 in    
Wind  
Wind Speed 2 mph (South)    
Max Wind Speed 9 mph    
Max Gust Speed -    
Visibility 10 miles    
Events      
T = Trace of Precipitation, MM = Missing Value Source: NWS Daily Summary

Daily Weather History Graph

Daily Weather History Graph

Search for Another Location

Airport or City:

Astronomy

Jul. 10, 2019 Rise Set
Actual Time 5:26 AM EDT 8:34 PM EDT
Civil Twilight 4:51 AM EDT 9:08 PM EDT
Nautical Twilight 4:07 AM EDT 9:52 PM EDT
Astronomical Twilight 3:14 AM EDT 10:45 PM EDT
Moon 2:31 PM EDT (7/10) 1:11 AM EDT (7/10)
Length of Visible Light 16h 16m
Length of Day
15h 08m
Waxing Gibbous, 63% of the Moon is Illuminated
Jul 10
Waxing Gibbous
Jul 16
Full
Jul 24
Last Quarter
Jul 31
New
Aug 7
First Quarter

Hourly Weather History & Observations

Time (EDT) Temp. Heat Index Dew Point Humidity Pressure Visibility Wind Dir Wind Speed Gust Speed Precip Events Conditions
12:51 AM 69.1 °F - 57.9 °F 68% 30.04 in 10.0 mi Calm Calm - N/A   Scattered Clouds
1:51 AM 66.9 °F - 57.9 °F 73% 30.04 in 10.0 mi Calm Calm - N/A   Scattered Clouds
2:51 AM 64.0 °F - 55.9 °F 75% 30.04 in 10.0 mi SSW 3.5 mph - N/A   Scattered Clouds
3:51 AM 63.0 °F - 55.0 °F 75% 30.04 in 10.0 mi South 3.5 mph - N/A   Clear
4:51 AM 62.1 °F - 55.0 °F 78% 30.04 in 10.0 mi WSW 3.5 mph - N/A   Clear
5:51 AM 63.0 °F - 55.9 °F 78% 30.06 in 10.0 mi Calm Calm - N/A   Partly Cloudy
6:51 AM 64.9 °F - 57.9 °F 78% 30.06 in 10.0 mi Calm Calm - N/A   Mostly Cloudy
7:51 AM 69.1 °F - 59.0 °F 70% 30.08 in 10.0 mi Calm Calm - N/A   Mostly Cloudy
8:51 AM 72.0 °F - 60.1 °F 66% 30.08 in 10.0 mi Calm Calm - N/A   Scattered Clouds
9:51 AM 75.9 °F - 60.1 °F 58% 30.06 in 10.0 mi Calm Calm - N/A   Scattered Clouds
10:51 AM 79.0 °F - 61.0 °F 54% 30.06 in 10.0 mi Calm Calm - N/A   Partly Cloudy
11:51 AM 82.0 °F 82.1 °F 59.0 °F 45% 30.04 in 10.0 mi SW 4.6 mph - N/A   Scattered Clouds
12:51 PM 86.0 °F 84.7 °F 55.9 °F 36% 30.03 in 10.0 mi Calm Calm - N/A   Scattered Clouds
1:51 PM 87.1 °F 86.1 °F 57.9 °F 37% 30.01 in 10.0 mi Variable 3.5 mph - N/A   Scattered Clouds
2:51 PM 87.1 °F 87.5 °F 62.1 °F 43% 29.99 in 10.0 mi NNE 4.6 mph - N/A   Scattered Clouds
3:51 PM 87.1 °F 86.7 °F 60.1 °F 40% 29.98 in 10.0 mi SSW 4.6 mph - N/A   Scattered Clouds
4:51 PM 88.0 °F 87.9 °F 61.0 °F 40% 29.97 in 10.0 mi SE 4.6 mph - N/A   Scattered Clouds
5:51 PM 86.0 °F 87.3 °F 64.0 °F 48% 29.97 in 10.0 mi South 9.2 mph - N/A   Scattered Clouds
6:51 PM 84.9 °F 85.4 °F 62.1 °F 46% 29.96 in 10.0 mi SE 5.8 mph - N/A   Scattered Clouds
7:51 PM 82.9 °F 83.7 °F 62.1 °F 49% 29.97 in 10.0 mi SSE 4.6 mph - N/A   Scattered Clouds
8:51 PM 81.0 °F 82.2 °F 63.0 °F 54% 29.96 in 10.0 mi SE 3.5 mph - N/A   Scattered Clouds
9:51 PM 77.0 °F - 64.0 °F 64% 29.97 in 10.0 mi Calm Calm - N/A   Scattered Clouds
10:51 PM 77.0 °F - 63.0 °F 62% 29.96 in 10.0 mi Calm Calm - N/A   Partly Cloudy
11:51 PM 73.0 °F - 63.0 °F 71% 29.95 in 10.0 mi Calm Calm - N/A   Partly Cloudy